Weather History for Fort Polk, LA

Change the Weather History Date:

Friday, October 7, 2011

  Actual Average (KPOE) Record (KPOE)
Temperature  
Mean Temperature 74 °F -  
Max Temperature 87 °F 77 °F 89 °F (2007)
Min Temperature 60 °F 59 °F 46 °F (2001)
Cooling Degree Days 8    
Growing Degree Days 24 (Base 50)    
Moisture  
Dew Point 61 °F    
Average Humidity 71    
Maximum Humidity 100    
Minimum Humidity 39    
Precipitation  
Precipitation 0.00 in - - ()
Sea Level Pressure  
Sea Level Pressure 30.11 in    
Wind  
Wind Speed 2 mph (ESE)    
Max Wind Speed 8 mph    
Max Gust Speed -    
Visibility 8 miles    
Events      
Averages and records for this station are not official NWS values.
T = Trace of Precipitation, MM = Missing Value Source: NWS Daily Summary

Daily Weather History Graph

Daily Weather History Graph

Search for Another Location

Airport:

Trip Planner

Search our weather history database for the weather conditions in past years. The results will help you decide how hot, cold, wet, or windy it might be!

Date:

Astronomy

Oct. 07, 2011 Rise Set
Actual Time 7:10 AM CDT 6:50 PM CDT
Civil Twilight 6:46 AM CDT 7:15 PM CDT
Nautical Twilight 6:18 AM CDT 7:43 PM CDT
Astronomical Twilight 5:49 AM CDT 8:11 PM CDT
Moon 4:22 PM CDT (10/7) 3:14 AM CDT (10/7)
Length of Visible Light 12h 28m
Length of Day
11h 40m
Waxing Gibbous, 83% of the Moon is Illuminated
Oct 7
Waxing Gibbous
Oct 11
Full
Oct 19
Last Quarter
Oct 26
New
Nov 2
First Quarter

Hourly Weather History & Observations

Time (CDT) Temp. Heat Index Dew Point Humidity Pressure Visibility Wind Dir Wind Speed Gust Speed Precip Events Conditions
12:56 AM 68.0 °F - 63.0 °F 84% 30.09 in 10.0 mi Calm Calm - N/A   Clear
1:56 AM 66.0 °F - 63.0 °F 90% 30.09 in 10.0 mi Calm Calm - N/A   Clear
2:56 AM 63.0 °F - 61.0 °F 93% 30.09 in 8.0 mi Calm Calm - N/A   Clear
3:56 AM 62.1 °F - 61.0 °F 96% 30.09 in 6.0 mi Calm Calm - N/A   Clear
4:56 AM 63.0 °F - 62.1 °F 97% 30.09 in 6.0 mi Calm Calm - N/A   Clear
5:49 AM 60.8 °F - 60.8 °F 100% 30.11 in 2.0 mi Calm Calm - N/A   Clear
5:56 AM 61.0 °F - 60.1 °F 97% 30.11 in 2.0 mi Calm Calm - N/A   Clear
6:07 AM 62.6 °F - 60.8 °F 94% 30.11 in 4.0 mi Calm Calm - N/A   Clear
6:56 AM 62.1 °F - 60.1 °F 93% 30.12 in 4.0 mi Calm Calm - N/A   Clear
7:56 AM 62.1 °F - 61.0 °F 96% 30.13 in 5.0 mi Calm Calm - N/A   Clear
8:56 AM 66.9 °F - 63.0 °F 87% 30.14 in 10.0 mi Variable 3.5 mph - N/A   Clear
9:56 AM 75.0 °F - 64.9 °F 71% 30.15 in 10.0 mi ESE 8.1 mph - N/A   Clear
10:56 AM 79.0 °F - 64.9 °F 62% 30.15 in 10.0 mi Variable 5.8 mph - N/A   Clear
11:56 AM 84.0 °F 85.4 °F 64.0 °F 51% 30.14 in 10.0 mi Variable 5.8 mph - N/A   Partly Cloudy
12:56 PM 84.0 °F 84.5 °F 62.1 °F 47% 30.12 in 10.0 mi Variable 6.9 mph - N/A   Partly Cloudy
1:56 PM 87.1 °F 87.5 °F 62.1 °F 43% 30.09 in 10.0 mi Variable 4.6 mph - N/A   Scattered Clouds
2:56 PM 87.1 °F 87.0 °F 61.0 °F 41% 30.08 in 10.0 mi Variable 5.8 mph - N/A   Mostly Cloudy
3:56 PM 87.1 °F 86.7 °F 60.1 °F 40% 30.07 in 10.0 mi ESE 8.1 mph - N/A   Scattered Clouds
4:56 PM 87.1 °F 86.5 °F 59.0 °F 39% 30.06 in 10.0 mi Variable 5.8 mph - N/A   Partly Cloudy
5:56 PM 84.9 °F 84.2 °F 57.9 °F 40% 30.06 in 10.0 mi Variable 4.6 mph - N/A   Clear
6:56 PM 80.1 °F 80.7 °F 59.0 °F 48% 30.07 in 10.0 mi Calm Calm - N/A   Clear
7:56 PM 75.0 °F - 59.0 °F 57% 30.09 in 10.0 mi Calm Calm - N/A   Clear
8:56 PM 71.1 °F - 60.1 °F 68% 30.11 in 10.0 mi Calm Calm - N/A   Clear
9:56 PM 71.1 °F - 61.0 °F 70% 30.12 in 10.0 mi Calm Calm - N/A   Clear
10:56 PM 73.0 °F - 62.1 °F 68% 30.13 in 10.0 mi Variable 5.8 mph - N/A   Clear
11:56 PM 71.1 °F - 60.1 °F 68% 30.12 in 10.0 mi SE 4.6 mph - N/A   Clear